Regional Weather Roundup
Issued by NWS Charleston, SC

Current Version | Previous Version | Graphics & Text | Print | Product List | Glossary On
Versions: 1 2 3 4 5 6 7 8 9 10 11 12 13 14 15 16 17 18 19 20 21 22 23 24 25 26 27 28 29 30 31 32 33 34 35 36 37 38 39 40 41 42 43 44 45 46 47 48 49 50
000 ASUS42 KCHS 270512 RWRCHS REGIONAL WEATHER ROUNDUP NATIONAL WEATHER SERVICE CHARLESTON SC 100 AM EDT SAT MAY 27 2017 NOTE: "FAIR" INDICATES FEW OR NO CLOUDS BELOW 12,000 FEET WITH NO SIGNIFICANT WEATHER AND/OR OBSTRUCTIONS TO VISIBILITY. NOT ALL STATIONS ARE QUALITY CONTROLLED. USE DATA WITH CAUTION... ESPECIALLY DEWPOINT OBSERVATIONS. SCZ027-030-031-034>040-042>050-270600- ...SOUTHEAST SOUTH CAROLINA... CITY SKY/WX TMP DP RH WIND PRES REMARKS N CHARLESTON CLEAR 68 57 68 W5 30.01S WATERFRONT PRK N/A 73 65 75 VRB2 30.00R JOHNS ISLAND FAIR 72 66 83 SW5 30.02S PINOPOLIS N/A 72 61 68 SW7 29.92S MONCKS CORNER FAIR 61 57 88 CALM 30.01S SUMMERVILLE FAIR 61 59 94 CALM 30.02S BEAUFORT MCAS CLEAR 69 63 81 SW5 30.02S BEAUFORT ARPT NOT AVBL HILTON HEAD IS NOT AVBL WALTERBORO CLEAR 63 57 82 CALM 30.02S ALLENDALE FAIR 66 61 82 CALM 30.01S ...SOUTHERN MIDLANDS AND PEE DEE... CITY SKY/WX TMP DP RH WIND PRES REMARKS GEORGETOWN FAIR 61 57 88 SW5 30.01S KINGSTREE FAIR 61 59 94 CALM 30.00S ORANGEBURG CLEAR 65 60 84 CALM 30.01S BARNWELL FAIR 66 63 88 CALM 30.02R AIKEN FAIR 64 59 82 SW3 30.05R MANNING NOT AVBL COLUMBIA CLEAR 66 60 81 W5 30.00R SUMTER CLEAR 65 60 83 SW3 29.98R FLORENCE CLEAR 63 60 90 CALM 29.99S MYRTLE BEACH NOT AVBL N MYRTLE BEACH CLEAR 66 61 84 CALM 29.99S $$ GAZ063-065-086>088-099>101-113>116-118-119-134>141-150-270600- ...SOUTHEAST GEORGIA... CITY SKY/WX TMP DP RH WIND PRES REMARKS SAVANNAH ARPT CLEAR 67 58 72 CALM 30.03S HUNTER AAF CLEAR 66 63 88 CALM 30.01S FORT STEWART CLEAR 64 59 82 CALM 30.01S STATESBORO CLEAR 65 65 100 CALM 30.02F SYLVANIA CLEAR 65 64 93 CALM 30.03F CLAXTON FAIR N/A N/A N/A CALM 30.03S ...CSRA...CENTRAL AND FAR SOUTHEAST GEORGIA... CITY SKY/WX TMP DP RH WIND PRES REMARKS THOMSON CLEAR 65 62 87 CALM 30.07R FOG AUGUSTA-BUSH CLEAR 65 62 90 CALM 30.01R AUGUSTA-DANIEL CLEAR 73 58 59 CALM 30.02R SWAINSBORO FAIR 66 64 94 CALM 30.03S VIDALIA CLEAR 68 63 83 CALM 30.03S EASTMAN FAIR 64 64 100 CALM 30.05S HAZLEHURST FAIR 68 64 88 CALM 30.02S ALMA CLEAR 63 61 93 CALM 30.03S WAYCROSS CLEAR 67 65 94 CALM 30.04S JESUP FAIR 61 57 88 CALM 30.04S BAXLEY FAIR 64 64 100 CALM 30.03F BRUNSWICK CLEAR 64 64 100 CALM 30.05R SAINT SIMONS CLEAR 72 68 87 SW3 30.04R $$ SCZ027-028-034-036>038-045-046-048>050-GAZ119-141-270600- ...LAKE AND SUPPLEMENTAL COASTAL OBSERVATIONS... STATION/POSITION TIME TEMP WIND PRES WAVE SWELL AIR SEA DIR/SP/G HT/PER HT/PER/DIR (UTC) (F) (DEG/KT/KT) (MB) (FT/S) (FT/S/D) WINYAH BAY 0345 70 250/ 3 1016.0 LAKE MURRAY 0420 73 250/ 4/ 5 1014.9 ACE BASIN NERRS NOT AVBL FORT PULASKI 0448 74 240/ 3/ 4 1017.1R SAPELO ISLAND 0400 73 CALM 1017.0 $$ ANZ835-935-AMZ111-154-330-350-352-354-370-450-454-472-270600- ...C-MAN AND BUOY OBSERVATIONS... STATION/POSITION TIME TEMP WIND PRES WAVE SWELL AIR SEA DIR/SP/G HT/PER HT/PER/DIR (UTC) (F) (DEG/KT/KT) (MB) (FT/S) (FT/S/D) BUOY 41004 0450 74 74 230/ 14/ 16 1016.1R 3/ 7 2/140/ 7 BUOY 41008 0350 77 77 190/ 14/ 14 1016.7 2/ 3 2/110/ 8 FOLLY BEACH CMAN 0400 74 230/ 5/ 6 1016.8R CAPERS NEARSHORE 0408 81 76 250/ 10/ 14 1015.9R FRIPP NEARSHORE 0408 78 77 240/ 10/ 12 1016.1R STATION/POSITION TIME TEMP WIND PRES WAVE SWELL AIR SEA DIR/SP/G HT/PER HT/PER/DIR (UTC) (F) (DEG/KT/KT) (MB) (FT/S) (FT/S/D) 5E ST. MARYS GA 0430 78 N/A 2/ 4 FRYING PAN BUOY 0450 74 74 240/ 12/ 16 1015.6R 4/ 7 2/150/ 7 BUOY 41025 0450 75 79 250/ 12/ 14 1014.4S 5/ 7 3/190/ 7 CAPE LOOKOUT NC 0400 73 250/ 9/ 11 1014.8R BUOY 41002 0350 77 77 260/ 12/ 16 1016.7 5/ 7 3/230/ 7 BUOY 41010 0450 77 79 CALM / 2 1017.6F 2/ 7 2/ 90/ 7 ST AUGUSTINE FL 0500 70 77 200/ 8/ 11 1018.6F $$

USA.gov is the U.S. government's official web portal to all federal, state and local government web resources and services.